Location: Sweetwater (historical)
(38.4624°N, 119.1749°W)
Time: 13:37:58
(UTC+00:00)

ERS-2 - Pass Details

Date: 13 August 2020
Orbit: 494 x 498 km, 98.6° (Epoch: 21 September)

Event Time Altitude Azimuth Distance (km) Brightness Sun altitude
Rises 12:23:37 0° 190° (S) 2,563 5.4 -9.2°
Reaches altitude 10° 12:25:54 10° 203° (SSW) 1,686 4.4 -8.8°
Maximum altitude 12:29:01 27° 262° (W) 987 3.1 -8.2°
Drops below altitude 10° 12:32:10 10° 322° (NW) 1,701 4.7 -7.7°
Sets 12:34:29 0° 334° (NNW) 2,590 5.8 -7.2°
